Date String (YYYY-MM-DD hh:mm:ss) UTC,Instrument flags,Ambient pressure (hPa),Sample flow (lpm),Bypass flow (lpm),Sample temperature (°C),Ambient temperature (°C),ASC tube jacket temperature (°C),LED temperature (°C),Box temperature (°C),Sample RH (%),Span deviation,Mass concentration (μg/m³),Mass concentration (μg/m³),Mass concentration (μg/m³)
DateTimeUTC,F1_M11,P_M11,Q1_M11,Q2_M11,T1_M11,T2_M11,T3_M11,T4_M11,T5_M11,U1_M11,ZSPAN_M11,X2_M11,X0_M11,X1_M11
2022-12-09 07:00:00,,0827.2,4.99,0.00,21.8,20.3,00.0,30.6,23.6,06.2,0000.0,0001.12,0001.57,0000.93
2022-12-09 07:01:00,,0827.3,4.99,0.00,21.8,20.3,00.0,30.6,23.6,06.1,0000.0,0001.12,0001.60,0000.93
2022-12-09 07:02:00,,0827.2,4.98,0.00,21.8,20.3,00.0,30.6,23.6,06.0,0000.0,0001.15,0001.70,0000.92
2022-12-09 07:03:00,,0827.1,5.02,0.00,21.8,20.3,00.0,30.6,23.6,06.1,0000.0,0001.18,0001.80,0000.94
2022-12-09 07:04:00,,0827.1,5.02,0.00,21.8,20.3,00.0,30.6,23.6,06.0,0000.0,0001.17,0001.79,0000.93
2022-12-09 07:05:00,,0827.4,4.99,0.00,21.8,20.3,00.0,30.6,23.6,06.1,0000.0,0001.20,0001.85,0000.93
2022-12-09 07:06:00,,0827.0,4.99,0.00,21.8,20.4,00.0,30.6,23.6,06.1,0000.0,0001.20,0001.88,0000.91
2022-12-09 07:07:00,,0827.0,4.99,0.00,21.8,21.3,00.0,30.6,23.8,06.2,0000.0,0001.19,0001.90,0000.90
2022-12-09 07:08:00,,0827.0,5.00,0.00,21.9,22.1,00.0,30.6,24.0,06.2,0000.0,0001.17,0001.87,0000.88
2022-12-09 07:09:00,,0827.1,5.00,0.00,22.0,21.9,00.0,30.7,24.0,06.1,0000.0,0001.17,0001.91,0000.86
2022-12-09 07:10:00,,0826.9,5.01,0.00,22.0,21.6,00.0,30.7,23.9,06.1,0000.0,0001.17,0002.19,0000.86
2022-12-09 07:11:00,,0827.0,5.01,0.00,22.0,21.4,00.0,30.7,23.9,06.2,0000.0,0001.15,0002.20,0000.85
2022-12-09 07:12:00,,0826.9,5.01,0.00,22.0,21.2,00.0,30.7,23.9,06.3,0000.0,0001.16,0003.85,0000.84
2022-12-09 07:13:00,,0827.2,4.99,0.00,22.0,21.0,00.0,30.7,23.9,06.3,0000.0,0001.17,0004.08,0000.83
2022-12-09 07:14:00,,0827.1,4.99,0.00,22.0,21.0,00.0,30.7,23.9,06.3,0000.0,0001.13,0003.98,0000.83
2022-12-09 07:15:00,,0826.8,4.99,0.00,22.0,20.9,00.0,30.7,23.9,06.3,0000.0,0001.13,0003.99,0000.82
2022-12-09 07:16:00,,0826.8,5.01,0.00,22.0,20.9,00.0,30.7,23.8,06.3,0000.0,0001.11,0003.99,0000.82
2022-12-09 07:17:00,,0826.8,5.01,0.00,22.0,20.8,00.0,30.8,23.9,06.3,0000.0,0001.11,0003.99,0000.81
2022-12-09 07:18:00,,0827.0,5.00,0.00,22.0,20.8,00.0,30.8,23.9,06.2,0000.0,0001.11,0003.97,0000.82
2022-12-09 07:19:00,,0826.8,4.99,0.00,22.0,20.7,00.0,30.8,23.8,06.3,0000.0,0001.15,0004.09,0000.82
2022-12-09 07:20:00,,0826.8,4.99,0.00,22.0,20.7,00.0,30.8,23.8,06.3,0000.0,0001.18,0004.18,0000.83
2022-12-09 07:21:00,,0826.9,4.99,0.00,22.0,20.6,00.0,30.8,23.8,06.3,0000.0,0001.18,0003.98,0000.81
2022-12-09 07:22:00,,0826.8,5.03,0.00,22.0,20.6,00.0,30.8,23.8,06.3,0000.0,0001.18,0003.81,0000.81
2022-12-09 07:23:00,,0827.2,5.00,0.00,22.0,20.5,00.0,30.8,23.8,06.4,0000.0,0001.17,0002.47,0000.83
2022-12-09 07:24:00,,0827.0,4.99,0.00,22.0,20.5,00.0,30.8,23.8,06.4,0000.0,0001.16,0002.29,0000.84
2022-12-09 07:25:00,,0826.8,4.99,0.00,22.0,20.5,00.0,30.8,23.8,06.3,0000.0,0001.14,0002.24,0000.83
2022-12-09 07:26:00,,0826.8,5.00,0.00,21.9,20.5,00.0,30.8,23.8,06.4,0000.0,0001.11,0002.17,0000.83
2022-12-09 07:27:00,,0826.8,5.02,0.00,21.9,20.5,00.0,30.8,23.7,06.3,0000.0,0001.11,0002.13,0000.84
2022-12-09 07:28:00,,0826.7,5.01,0.00,21.9,20.5,00.0,30.8,23.7,06.3,0000.0,0001.10,0002.09,0000.85
2022-12-09 07:29:00,,0826.7,4.99,0.00,21.9,20.4,00.0,30.8,23.7,06.3,0000.0,0001.09,0002.08,0000.86
2022-12-09 07:30:00,,0826.8,4.98,0.00,21.9,20.5,00.0,30.7,23.7,06.3,0000.0,0001.08,0002.02,0000.87
2022-12-09 07:31:00,,0826.8,5.00,0.00,22.0,21.3,00.0,30.7,23.9,06.3,0000.0,0001.06,0002.32,0000.87
2022-12-09 07:32:00,,0826.8,5.00,0.00,22.0,22.0,00.0,30.7,24.1,06.3,0000.0,0001.06,0002.82,0000.88
2022-12-09 07:33:00,,0826.8,5.02,0.00,22.1,21.9,00.0,30.8,24.1,06.2,0000.0,0001.06,0002.81,0000.88
2022-12-09 07:34:00,,0826.8,5.00,0.00,22.1,21.7,00.0,30.8,24.0,06.2,0000.0,0001.04,0002.79,0000.85
2022-12-09 07:35:00,,0826.8,4.99,0.00,22.1,21.4,00.0,30.8,24.0,06.2,0000.0,0001.01,0002.32,0000.84
2022-12-09 07:36:00,,0826.8,4.99,0.00,22.1,21.3,00.0,30.8,24.0,06.2,0000.0,0001.03,0002.42,0000.84
2022-12-09 07:37:00,,0826.7,5.01,0.00,22.1,21.2,00.0,30.8,23.9,06.3,0000.0,0001.05,0002.52,0000.85
2022-12-09 07:38:00,,0826.7,5.02,0.00,22.1,21.0,00.0,30.8,23.9,06.3,0000.0,0001.08,0002.64,0000.85
2022-12-09 07:39:00,,0826.7,5.00,0.00,22.1,21.0,00.0,30.8,23.9,06.2,0000.0,0001.08,0002.66,0000.85
2022-12-09 07:40:00,,0826.7,4.99,0.00,22.1,20.9,00.0,30.9,23.9,06.2,0000.0,0001.09,0002.68,0000.84
2022-12-09 07:41:00,,0826.7,4.98,0.00,22.1,20.7,00.0,30.9,23.9,06.2,0000.0,0001.08,0002.64,0000.84
2022-12-09 07:42:00,,0826.7,5.01,0.00,22.0,20.7,00.0,30.8,23.8,06.2,0000.0,0001.07,0002.19,0000.84
2022-12-09 07:43:00,,0826.8,5.02,0.00,22.0,20.6,00.0,30.8,23.8,06.2,0000.0,0001.05,0001.69,0000.84
2022-12-09 07:44:00,,0826.6,4.98,0.00,22.0,20.5,00.0,30.8,23.8,06.2,0000.0,0001.08,0001.78,0000.84
2022-12-09 07:45:00,,0826.7,4.98,0.00,22.0,20.5,00.0,30.8,23.7,06.2,0000.0,0001.10,0001.82,0000.85
2022-12-09 07:46:00,,0826.7,5.00,0.00,22.0,20.5,00.0,30.8,23.7,06.2,0000.0,0001.12,0001.90,0000.86
2022-12-09 07:47:00,,0826.7,5.02,0.00,21.9,20.4,00.0,30.8,23.7,06.3,0000.0,0001.12,0001.82,0000.87
2022-12-09 07:48:00,,0826.7,5.00,0.00,21.9,20.4,00.0,30.8,23.7,06.2,0000.0,0001.11,0001.75,0000.86
2022-12-09 07:49:00,,0826.7,5.00,0.00,21.9,20.5,00.0,30.8,23.7,06.2,0000.0,0001.08,0001.71,0000.85
2022-12-09 07:50:00,,0826.6,4.98,0.00,22.0,21.1,00.0,30.8,23.8,06.2,0000.0,0001.10,0001.75,0000.85
2022-12-09 07:51:00,,0826.7,4.99,0.00,22.1,22.0,00.0,30.8,24.0,06.2,0000.0,0001.11,0001.80,0000.85
2022-12-09 07:52:00,,0826.7,5.01,0.00,22.1,22.0,00.0,30.8,24.1,06.1,0000.0,0001.11,0001.81,0000.85
2022-12-09 07:53:00,,0826.7,5.00,0.00,22.1,21.7,00.0,30.8,24.0,06.1,0000.0,0001.10,0001.82,0000.84
2022-12-09 07:54:00,,0826.7,5.01,0.00,22.1,21.4,00.0,30.9,24.0,06.1,0000.0,0001.13,0001.91,0000.85
2022-12-09 07:55:00,,0826.7,4.99,0.00,22.1,21.2,00.0,30.9,23.9,06.1,0000.0,0001.14,0001.91,0000.86
2022-12-09 07:56:00,,0826.7,4.99,0.00,22.1,21.1,00.0,30.9,23.9,06.0,0000.0,0001.11,0001.85,0000.85
2022-12-09 07:57:00,,0826.8,5.00,0.00,22.1,20.9,00.0,30.9,23.9,06.0,0000.0,0001.11,0001.86,0000.84
2022-12-09 07:58:00,,0826.8,5.02,0.00,22.1,20.8,00.0,30.9,23.9,06.0,0000.0,0001.11,0001.84,0000.84
2022-12-09 07:59:00,,0826.8,5.00,0.00,22.1,20.8,00.0,30.9,23.9,06.0,0000.0,0001.13,0001.88,0000.83
